Theta_e
353 354 354 354 354 352 353 352 352 351 350 349 349 347 346 346 344 344 343 341 336 332 331 333 333 334 337 337 332 329 331 332 330 327 323 321 324 325 322 327 333 330 331 338 339 339 338 333 331 338 342 339 339 340 336 334 334 335 338 337 336 338 339
353 353 354 354 352 351 352 352 351 351 349 348 347 345 345 344 342 341 339 335 332 331 333 334 334 336 338 338 335 333 334 334 330 325 325 324 321 322 322 324 328 331 332 336 338 337 338 337 337 339 340 339 340 340 338 337 335 335 339 337 336 338 339
353 353 353 352 350 351 352 352 351 350 348 346 345 344 344 343 342 342 340 337 336 337 339 338 338 339 339 340 339 338 337 334 330 325 325 327 325 324 325 323 327 334 336 335 335 337 338 338 338 337 335 335 337 339 339 338 336 337 339 336 336 339 340
352 353 353 350 350 351 352 351 351 350 347 345 344 344 343 342 342 342 341 340 338 338 340 340 340 340 340 340 341 340 339 334 331 327 324 326 326 325 329 331 333 336 335 333 336 336 333 332 335 336 335 331 330 331 332 333 334 337 338 336 336 339 339
352 352 351 349 350 351 352 351 350 349 347 345 344 343 342 341 342 342 341 339 338 338 338 339 340 341 340 341 341 341 340 333 327 325 325 325 326 329 333 336 336 337 335 335 336 336 332 330 332 333 332 329 326 327 330 334 338 339 337 336 336 337 338
352 352 350 349 350 351 352 350 349 348 347 345 344 342 341 341 341 341 339 338 338 339 339 337 339 340 340 341 341 340 338 333 326 324 326 328 329 334 337 337 336 336 336 335 336 337 335 333 332 327 325 327 329 332 334 336 337 336 334 334 336 337 338
352 352 350 349 349 351 350 348 347 346 346 345 343 342 342 341 342 340 338 338 339 340 340 339 339 340 340 341 340 339 338 336 333 330 332 334 335 336 338 336 336 336 336 335 335 335 335 334 334 332 330 329 330 333 333 330 331 332 333 334 335 337 337
352 351 349 347 348 348 348 347 346 345 345 344 343 344 344 342 342 341 339 339 340 341 341 341 340 339 340 339 338 338 338 338 337 334 334 336 336 337 336 336 336 336 335 335 335 335 335 335 335 335 333 328 325 324 324 326 331 334 335 336 336 336 337
352 350 348 346 346 347 347 347 346 345 344 343 342 343 344 343 342 341 340 340 341 341 341 341 340 336 336 338 338 338 337 336 335 334 333 335 337 337 336 335 336 335 335 335 335 335 334 334 334 334 329 323 321 322 325 329 333 334 335 336 335 336 337
350 348 347 347 346 347 347 347 347 345 344 344 342 341 342 343 343 343 342 341 341 342 341 341 339 335 334 337 337 336 336 335 336 334 333 335 337 336 335 335 335 336 335 335 336 335 334 333 335 334 329 325 325 327 327 328 331 334 334 334 334 335 336
350 349 350 348 347 348 348 349 348 346 344 343 341 340 340 341 342 342 342 341 341 341 340 340 339 336 334 335 336 336 335 335 335 333 332 334 336 336 335 335 336 336 336 336 336 335 334 334 334 334 333 331 330 327 324 326 330 332 333 333 332 333 335
352 353 353 350 349 350 352 352 349 346 342 340 340 340 338 337 337 340 341 341 341 340 338 338 338 336 333 334 337 337 335 335 336 335 334 335 337 336 336 335 335 335 335 336 336 335 335 335 334 334 334 332 330 327 326 328 329 330 332 332 331 331 332
354 356 354 353 352 353 354 352 349 345 337 336 340 341 336 333 334 337 338 338 339 338 336 337 337 335 333 335 338 337 336 336 336 335 335 335 335 334 334 334 334 335 336 336 336 335 335 335 334 334 333 333 331 329 327 328 329 331 332 332 332 332 331
354 355 355 355 355 354 354 350 350 348 338 332 339 340 334 332 334 335 334 334 335 335 335 337 337 335 332 334 337 337 335 335 334 333 332 332 332 331 332 332 333 335 336 336 336 335 335 335 334 334 333 333 332 330 329 329 330 331 332 331 331 330 329
353 354 355 355 355 355 354 350 349 349 341 331 333 334 331 331 334 333 332 332 333 334 336 337 337 336 333 333 335 335 334 332 331 331 330 331 331 331 331 331 332 334 335 335 335 335 335 334 334 333 333 332 332 331 331 331 331 331 332 330 329 327 326
354 354 354 353 354 354 353 351 348 348 345 336 330 329 330 331 331 331 331 332 333 334 336 337 338 336 332 332 334 334 334 332 331 331 331 331 332 332 332 332 332 334 334 334 334 335 335 335 334 332 329 330 331 332 332 331 331 332 330 328 326 326 325
354 354 353 353 353 353 352 352 350 348 347 343 334 329 329 331 332 331 332 332 333 335 336 337 338 336 332 332 333 334 334 334 333 333 333 333 333 333 333 333 333 334 334 334 334 335 335 334 332 327 324 327 331 332 332 331 331 331 329 326 325 326 326
353 354 354 352 354 354 351 350 350 347 348 347 341 334 329 330 332 333 333 333 333 335 336 337 338 337 333 331 332 334 335 335 335 334 333 333 333 332 332 332 332 334 334 334 334 333 331 329 326 323 325 330 332 331 331 331 331 331 329 326 325 326 327
351 353 355 353 352 351 348 348 349 348 347 348 346 340 332 328 331 334 334 335 334 335 336 337 337 337 335 332 332 334 335 335 335 335 334 333 332 331 332 331 332 333 333 333 331 329 327 326 325 326 329 331 332 331 331 331 330 331 329 325 324 324 325
350 353 356 353 350 348 346 347 348 347 347 347 347 344 336 330 331 333 335 336 335 336 337 337 338 337 334 332 332 334 336 336 335 335 333 331 330 330 330 331 332 333 332 331 329 327 326 327 328 329 330 331 331 330 331 330 330 330 328 324 323 323 324
352 355 356 352 347 346 346 346 347 347 347 346 346 345 340 333 332 334 336 336 335 336 337 338 339 338 333 332 333 334 336 335 335 334 332 330 328 329 330 331 332 332 331 330 327 324 325 327 329 330 330 330 330 330 330 329 329 329 327 324 324 324 324
354 355 354 352 347 345 345 344 346 347 346 346 345 345 342 336 333 334 336 337 336 336 337 337 338 336 332 332 334 335 335 335 334 333 330 328 327 328 330 331 331 330 329 326 323 322 324 326 329 329 329 330 330 329 329 329 329 329 327 324 323 323 324
351 349 349 349 345 344 343 342 344 345 344 343 344 344 342 338 334 335 337 337 336 337 337 336 336 333 332 334 335 335 334 334 333 330 328 328 328 330 330 330 329 327 325 325 325 325 324 325 328 328 329 329 329 328 329 329 328 327 325 323 322 324 325
345 344 344 344 343 343 342 340 342 342 341 341 342 342 341 338 335 336 337 337 337 337 337 335 334 333 333 335 336 335 334 333 330 328 328 329 329 330 330 328 326 325 325 326 328 327 324 325 328 328 328 328 328 327 327 326 325 324 325 325 324 324 326
345 343 343 343 342 342 341 341 341 340 339 340 339 340 340 338 336 337 337 337 337 337 336 335 335 335 334 335 335 334 332 330 329 328 330 330 330 329 328 326 325 325 325 326 327 327 326 327 328 328 327 328 327 326 326 326 326 327 328 329 327 325 326
344 342 342 342 342 342 341 341 340 339 339 339 338 339 338 336 337 337 337 337 337 337 337 336 335 334 334 334 333 331 329 329 329 330 331 330 329 327 326 325 324 324 324 326 327 327 327 327 327 327 327 327 327 327 327 328 328 328 329 329 327 326 325
343 343 343 342 341 341 341 341 341 341 339 338 338 339 339 339 340 339 338 336 337 337 336 334 334 334 334 332 330 329 329 330 330 331 330 328 327 325 323 323 323 324 326 327 327 326 326 326 326 327 327 327 327 328 328 328 328 328 329 328 327 326 325
344 343 342 341 340 341 341 342 342 340 338 338 338 339 340 341 340 339 337 337 337 337 336 335 334 333 331 329 328 329 330 330 329 328 327 326 325 323 323 324 325 326 327 326 326 326 327 327 326 327 327 327 327 328 328 328 328 328 328 327 327 326 326
344 342 340 340 340 340 341 342 341 339 338 338 338 339 341 340 338 336 336 337 337 337 336 333 331 328 328 328 329 330 329 328 327 326 326 325 323 323 324 326 326 326 326 326 327 327 327 327 327 327 327 328 328 328 328 328 328 328 327 327 327 326 326
344 342 342 342 341 341 341 341 341 340 339 338 337 336 337 336 334 334 336 336 335 333 332 330 328 328 330 331 330 329 328 326 325 325 325 325 324 325 326 326 326 326 326 327 327 327 327 327 327 327 327 327 327 328 328 327 327 327 327 326 326 326 325
344 343 344 343 342 342 341 340 340 339 337 337 335 333 334 334 334 334 335 332 328 326 327 328 329 330 331 331 330 329 328 326 325 325 325 325 326 326 326 326 326 326 326 326 326 326 327 327 327 327 328 327 327 327 327 327 326 326 326 326 326 326 325
343 343 343 342 342 341 340 339 338 336 334 335 334 333 333 331 331 331 328 325 326 328 327 328 330 331 331 331 330 329 328 326 325 324 324 325 326 327 326 326 326 326 326 326 326 325 326 326 326 326 327 327 327 326 326 326 326 326 326 325 325 325 325
342 342 342 341 340 339 339 339 337 335 334 333 333 334 332 327 324 325 324 324 330 332 329 329 330 331 331 330 329 328 327 326 324 324 325 326 327 327 327 327 326 326 326 325 325 325 325 325 325 325 325 325 326 326 326 326 326 326 326 325 325 325 324
341 339 337 335 335 335 336 337 337 335 333 330 330 333 332 328 325 325 324 326 329 329 329 330 331 330 330 329 328 327 326 324 324 325 326 326 326 326 327 326 326 326 325 324 324 325 325 324 325 325 325 325 325 325 325 326 326 325 325 324 324 324 323
336 333 329 328 327 328 328 331 333 333 330 327 328 330 329 326 325 325 325 326 327 327 328 329 330 329 328 327 327 327 325 323 324 325 326 325 326 326 326 326 325 325 325 324 324 324 323 323 324 324 324 324 324 325 325 325 325 325 324 323 322 321 320
330 327 326 325 325 325 324 326 330 331 328 327 328 328 327 325 324 324 325 326 326 327 327 327 328 328 328 327 327 325 324 323 325 325 325 325 325 325 325 325 325 325 324 324 324 322 321 322 323 323 323 323 323 324 324 323 323 323 322 321 320 319 319
326 325 325 326 326 325 324 325 329 330 327 326 328 327 327 326 324 324 327 328 326 325 325 324 326 328 327 326 326 325 324 324 325 325 325 325 324 324 325 325 325 324 324 324 323 322 321 321 321 321 321 322 322 322 322 322 321 321 320 320 320 319 319
326 326 326 326 326 325 324 326 331 331 328 327 329 329 329 328 326 327 330 329 326 324 324 324 325 326 327 326 325 324 324 325 325 325 324 324 324 324 324 324 324 323 323 323 323 322 321 319 318 317 318 319 321 321 321 321 320 320 320 319 319 319 319
Wind_Speed
21 19 18 17 16 15 14 13 12 11 10 9 9 9 9 9 9 8 8 8 8 7 8 8 8 8 8 7 6 5 4 3 2 1 1 1 2 4 4 4 5 7 5 5 6 7 8 9 8 7 8 10 9 10 12 12 11 12 12 13 13 13 13
21 20 19 18 17 16 15 14 13 12 11 10 10 10 10 10 10 10 10 10 9 9 9 8 8 8 8 7 6 4 3 2 1 1 1 2 3 4 5 5 5 6 6 6 7 8 8 9 8 9 10 10 9 11 13 12 12 13 13 14 15 14 14
21 20 20 19 18 17 16 15 14 13 12 11 11 11 12 12 12 11 11 11 10 10 9 8 8 8 7 7 5 3 1 0 1 1 2 3 3 4 5 6 5 5 6 7 8 7 8 8 9 11 12 11 11 12 13 13 13 13 13 15 15 14 15
20 20 20 19 19 18 17 16 15 13 13 12 12 12 13 13 12 11 11 10 10 9 9 8 8 7 6 6 4 3 1 1 1 2 2 2 3 4 4 5 5 6 7 7 7 8 9 9 9 10 12 12 12 12 13 13 12 12 13 14 14 14 15
20 20 21 20 20 19 18 17 15 14 13 13 12 13 13 13 12 11 11 10 9 9 8 7 8 7 6 5 4 3 2 3 2 2 2 3 4 3 3 5 5 6 7 6 6 8 9 8 8 9 10 11 11 11 12 11 11 12 12 13 13 13 14
22 22 22 22 21 19 18 17 16 15 14 14 14 14 14 13 12 12 11 11 9 8 7 6 6 6 6 5 5 4 3 3 3 2 3 3 3 3 5 6 5 5 6 6 5 7 8 8 8 9 9 10 10 10 11 11 11 12 12 12 11 12 12
23 23 23 22 21 20 19 18 16 16 15 14 15 15 15 14 13 13 12 11 10 9 7 6 6 6 6 6 6 5 4 4 4 3 3 3 4 4 5 6 5 5 6 6 6 7 8 8 9 10 11 11 11 11 12 12 12 11 11 11 11 12 12
22 23 23 23 21 20 19 18 17 17 16 16 16 16 15 14 14 13 12 11 10 9 8 6 6 6 6 6 5 5 4 4 4 4 4 4 4 5 6 6 6 6 6 6 6 7 8 9 9 10 11 12 11 11 12 12 11 10 11 11 12 12 13
22 23 24 23 21 20 19 19 18 17 17 17 17 17 17 15 14 13 13 12 11 10 8 7 5 5 5 6 5 4 4 4 4 4 4 4 5 6 6 6 7 7 6 6 7 8 9 10 10 10 11 11 12 11 11 11 11 11 11 11 12 13 13
24 24 24 23 21 19 19 19 18 18 18 18 19 19 18 16 15 14 14 13 12 10 9 7 5 3 3 4 4 3 3 3 4 5 6 5 5 7 7 7 7 8 8 7 7 8 9 10 11 11 11 12 12 12 12 12 11 11 11 12 12 12 13
24 24 24 23 21 20 20 20 20 20 20 20 20 20 19 18 17 16 14 14 12 11 10 8 6 3 2 3 3 3 3 4 5 6 7 6 6 7 8 8 9 9 9 8 8 9 9 10 11 11 12 12 12 13 13 12 12 12 12 13 12 13 13
23 23 23 23 23 21 21 22 22 22 22 22 21 20 20 19 18 16 15 14 13 12 10 8 6 4 3 3 3 3 3 4 6 6 7 6 7 8 9 9 10 10 10 10 9 10 10 10 11 11 12 13 13 13 13 12 12 12 13 13 13 13 14
21 21 22 23 22 21 22 24 24 23 23 22 20 20 20 19 18 17 16 15 14 12 10 8 6 4 3 3 4 5 4 5 6 6 6 6 7 8 9 10 11 11 11 10 10 11 10 10 11 12 13 13 13 13 14 13 12 12 12 13 13 14 15
19 20 20 21 22 22 23 25 24 23 24 23 21 21 21 20 18 17 16 15 14 13 11 9 7 5 3 3 5 5 5 5 6 7 6 7 8 9 10 11 11 11 11 10 11 12 11 11 12 12 12 13 13 14 14 13 13 12 12 12 13 14 15
20 19 20 21 22 23 24 26 26 25 25 25 24 23 22 20 19 18 17 16 15 13 11 9 7 5 4 4 4 5 5 6 7 7 8 8 9 10 11 12 12 11 10 11 11 12 13 13 13 13 13 13 13 14 14 13 13 13 13 14 14 15 16
20 19 20 21 22 24 25 27 28 28 27 27 26 25 23 22 21 19 17 16 15 14 12 10 8 6 5 5 5 5 5 6 8 8 9 9 10 11 11 12 11 11 11 12 12 12 13 13 13 15 17 16 14 13 14 14 13 13 14 15 15 16 17
20 20 21 21 21 23 25 26 28 29 28 28 27 26 25 23 22 20 18 16 15 13 12 11 8 7 6 6 6 6 6 8 9 10 10 10 11 11 11 11 12 12 12 12 13 13 13 14 16 19 21 18 14 13 15 15 15 16 16 16 16 16 17
20 21 21 22 21 23 25 26 27 29 29 28 28 27 26 25 23 21 18 17 15 13 11 10 9 8 8 8 8 7 8 9 11 11 11 11 11 12 12 12 13 12 13 13 14 14 16 18 20 22 20 16 15 15 16 16 17 20 20 17 16 17 18
21 21 21 22 23 24 25 26 26 27 27 27 28 27 27 26 24 21 18 16 14 13 11 10 9 9 9 10 10 9 9 11 11 11 12 12 12 13 13 13 13 13 14 15 16 18 20 21 21 21 18 15 16 17 17 17 18 21 21 18 17 17 18
18 18 18 20 22 23 23 23 23 24 23 25 27 27 25 25 23 20 18 15 13 12 11 10 10 9 11 11 10 10 10 11 12 13 13 14 14 14 15 14 15 15 15 16 18 20 21 21 20 19 17 16 17 17 17 17 18 20 21 19 18 18 18
13 13 14 17 20 21 20 21 21 21 21 22 24 25 25 24 22 20 18 15 13 12 10 10 10 10 11 12 11 11 11 12 13 14 15 15 16 16 16 16 15 16 17 19 21 23 22 21 19 18 17 17 17 18 18 18 18 20 22 21 20 20 20
10 10 11 13 15 17 17 18 18 18 19 19 20 23 24 23 21 19 17 15 14 11 9 9 10 11 12 12 11 12 13 14 15 16 16 17 17 17 17 16 17 18 20 22 24 23 22 21 19 18 18 18 18 18 18 19 19 21 24 25 24 23 22
10 10 10 9 11 12 12 13 13 14 15 16 17 19 22 22 20 18 16 15 13 10 9 10 10 11 12 12 12 13 15 16 17 17 18 18 17 17 17 18 20 21 22 22 21 21 21 21 19 18 18 18 18 18 19 20 22 24 26 27 25 22 21
9 8 7 7 7 7 7 8 10 10 10 11 12 15 19 21 20 17 14 13 11 10 10 10 11 12 12 12 12 15 17 17 17 17 17 17 17 18 19 21 22 22 22 20 19 20 22 21 20 19 20 20 21 21 22 23 24 24 25 24 21 19 18
6 6 6 7 7 6 7 7 8 8 7 8 10 13 16 18 17 14 13 12 11 10 10 10 11 12 12 12 15 17 18 17 17 17 16 16 18 20 21 22 22 23 23 21 20 21 21 19 20 21 22 22 23 22 22 22 21 19 20 21 19 17 16
9 9 9 9 9 9 9 9 9 9 9 10 10 12 14 14 12 11 11 11 11 10 10 11 11 12 12 14 17 17 16 15 15 15 15 17 19 21 22 22 23 23 22 20 20 20 20 20 20 21 21 21 20 19 18 18 17 16 18 21 19 16 15
13 13 12 12 12 12 12 12 12 11 11 12 13 14 13 11 9 8 9 10 9 9 10 11 11 12 14 16 16 15 14 14 14 15 17 19 20 22 23 23 23 21 19 18 18 19 19 19 19 18 18 17 17 17 17 16 16 17 17 19 19 16 16
16 15 15 14 14 14 14 15 14 14 14 14 14 13 11 9 9 8 8 8 6 6 8 10 12 13 15 15 13 12 13 14 16 17 19 20 21 23 23 20 18 17 17 17 17 17 18 18 17 17 16 15 16 16 16 15 16 18 18 18 19 18 18
17 17 16 15 15 15 15 16 16 15 15 13 12 11 10 9 9 8 7 6 5 5 8 11 13 13 12 11 11 12 13 16 18 19 19 20 21 21 18 16 15 15 16 16 16 16 17 18 18 18 17 16 16 15 15 15 16 17 18 19 19 20 20
17 16 16 16 16 16 16 16 16 14 13 11 10 10 10 8 7 6 5 5 7 8 9 10 10 10 9 9 11 13 15 17 19 19 19 19 18 16 15 15 16 16 17 17 17 16 17 17 18 18 18 18 17 15 16 17 17 18 19 19 20 21 21
17 17 17 17 16 15 14 14 13 12 11 10 8 7 7 5 4 4 5 7 8 8 8 7 7 8 8 9 11 13 14 17 18 17 16 16 15 14 15 16 17 18 18 19 18 18 17 18 19 18 17 18 18 17 18 19 20 20 19 19 20 21 21
17 17 17 16 15 14 13 11 10 8 8 7 6 4 4 4 3 4 5 6 6 6 6 6 7 8 8 8 9 10 12 14 15 15 14 13 14 15 16 17 17 18 19 18 19 19 18 18 19 18 18 19 20 20 20 20 20 20 19 19 20 21 20
17 16 15 14 13 12 11 10 9 7 6 5 4 3 2 3 3 3 4 4 2 3 6 7 6 7 7 8 9 10 12 14 15 14 13 13 14 15 16 16 16 17 18 17 18 18 16 16 17 18 19 20 20 20 19 18 18 18 19 21 22 22 21
16 15 14 13 12 11 10 9 9 7 6 5 4 4 3 1 2 2 3 3 3 4 5 6 6 7 7 8 9 10 12 14 14 13 13 14 16 16 16 16 16 16 17 16 16 17 16 15 16 17 18 19 19 19 18 17 17 18 21 24 25 27 28
15 14 13 12 11 9 8 8 8 7 6 4 4 3 2 1 1 2 3 4 4 5 5 5 7 8 8 8 9 11 13 14 13 13 14 15 16 16 17 17 16 16 16 15 14 17 17 16 16 16 17 18 19 19 18 17 17 20 24 27 29 30 32
14 13 12 10 8 7 7 7 7 7 5 4 4 3 2 1 2 2 3 4 5 5 6 8 8 7 8 9 10 12 15 14 12 13 15 16 16 17 18 18 17 18 19 19 19 20 19 17 16 17 17 18 18 18 19 20 21 24 27 28 29 30 31
11 11 10 8 7 7 7 7 7 6 5 4 4 2 1 1 2 3 3 4 5 7 9 10 9 7 8 10 11 14 15 13 12 14 16 16 17 18 18 17 17 18 20 22 23 23 20 17 18 19 18 18 19 19 19 21 22 23 25 26 28 29 29
9 9 8 8 8 8 8 8 7 5 4 4 3 2 1 1 2 2 2 4 7 9 10 10 8 7 9 10 12 14 14 12 13 15 16 16 17 17 16 17 18 19 20 21 23 24 21 20 22 23 22 21 19 19 19 20 21 23 27 29 31 31 31
Wind_Direction
169 172 175 176 174 172 170 168 167 168 168 168 168 167 168 171 171 169 167 171 174 172 169 165 161 159 157 161 165 162 164 174 195 222 279 289 266 274 290 291 279 286 294 287 283 280 279 285 283 269 266 269 271 271 268 263 260 261 264 266 265 267 269
169 169 170 172 168 166 167 168 168 170 170 170 169 166 167 167 164 161 157 156 154 153 154 153 150 149 150 154 157 155 156 177 224 254 279 291 297 297 297 295 285 294 304 286 279 286 290 293 290 277 273 275 276 275 274 273 269 265 266 264 261 262 265
168 167 168 168 165 165 168 169 171 173 172 171 170 167 166 163 158 154 150 147 145 147 151 154 153 154 156 158 161 162 166 234 258 271 273 278 292 298 299 303 297 286 282 277 282 288 284 280 282 283 283 281 276 274 273 275 276 275 273 269 264 263 263
166 164 166 166 164 167 170 171 173 174 173 172 170 168 166 163 159 156 153 149 146 149 154 157 161 167 168 166 172 184 226 284 274 271 274 272 283 291 292 294 292 280 273 276 279 277 277 280 285 288 289 288 285 281 280 282 284 281 276 272 269 266 264
166 165 167 167 165 169 171 173 176 174 173 172 171 171 167 165 163 161 160 156 152 154 158 162 166 177 182 178 187 204 235 264 266 264 272 276 276 278 273 264 264 269 272 275 273 275 283 287 285 284 286 289 290 289 289 289 287 283 277 274 274 271 270
167 167 169 169 167 171 173 174 176 175 174 173 174 173 169 169 168 165 165 161 159 162 165 169 174 183 190 192 206 222 238 258 264 266 267 273 267 254 253 258 258 263 269 269 266 272 283 291 297 303 304 300 296 291 288 283 278 275 274 275 276 274 272
168 168 170 170 170 173 173 173 176 176 175 175 176 175 173 173 172 169 170 167 167 171 173 181 188 195 200 202 215 228 233 244 259 272 264 261 263 253 256 266 266 258 260 268 275 279 289 301 309 312 312 309 302 291 285 282 280 278 277 278 276 274 274
167 168 170 171 172 173 173 175 177 176 176 177 178 179 177 177 175 174 178 175 175 181 182 190 199 202 204 207 219 228 222 227 246 268 268 259 265 269 268 270 267 262 268 279 285 292 300 306 306 302 302 304 304 298 292 288 286 285 282 280 275 272 273
168 169 170 172 173 174 175 178 178 177 179 180 182 184 182 181 181 180 183 182 183 187 186 190 197 195 197 203 217 228 225 235 258 279 281 266 265 272 270 266 267 269 275 278 284 297 304 302 299 297 303 312 316 311 301 291 285 283 281 280 278 277 275
169 171 172 173 174 175 178 180 179 180 182 184 186 187 185 187 188 187 189 190 190 191 191 194 198 190 188 201 217 229 235 255 279 294 291 271 262 272 272 267 267 269 274 279 284 291 295 296 297 298 308 321 321 312 304 295 285 281 277 277 278 279 279
170 172 173 175 175 177 180 181 181 183 185 189 190 189 189 191 191 190 192 194 194 195 196 198 205 211 209 213 225 238 254 274 287 295 292 272 259 268 269 265 267 271 278 282 280 281 287 294 297 297 303 311 312 310 309 301 289 281 276 275 278 279 279
169 170 173 176 177 179 180 182 184 187 190 193 192 191 193 194 193 194 196 197 197 199 200 202 214 233 244 231 231 245 271 285 289 291 287 271 260 263 266 269 274 279 283 283 282 286 292 295 297 298 298 301 307 310 309 302 293 285 278 274 275 276 275
168 171 175 177 179 181 183 188 190 191 194 194 193 195 196 194 195 197 198 198 199 200 202 208 223 245 263 247 239 255 281 290 290 292 286 275 272 276 279 282 284 285 285 282 282 287 291 293 296 298 298 299 304 308 308 304 297 289 283 278 276 273 272
169 174 177 180 184 187 192 196 195 195 197 197 195 198 198 195 196 198 198 199 200 201 202 210 228 252 271 253 248 268 295 304 303 303 301 294 293 294 294 293 291 288 284 280 282 287 289 291 292 293 295 296 298 304 306 301 296 294 290 284 279 275 271
172 176 180 186 191 194 199 202 201 201 201 200 200 201 197 195 198 200 199 200 202 202 203 210 227 253 269 262 264 283 306 317 313 310 308 302 300 299 299 297 295 291 286 283 286 289 290 291 292 292 295 294 292 295 297 294 293 290 283 281 283 280 273
176 180 185 191 195 200 204 206 208 208 205 203 204 203 199 197 199 200 200 201 203 205 207 212 227 253 265 267 278 293 310 320 318 314 308 302 300 299 299 300 298 294 290 289 289 289 289 289 290 295 300 298 292 291 291 292 289 279 273 280 286 284 280
179 183 189 194 197 202 207 208 210 212 210 208 208 207 205 202 202 203 204 205 207 208 211 216 227 249 263 270 284 296 307 318 320 317 311 304 301 301 299 299 298 296 294 293 291 290 288 288 292 299 304 301 292 287 287 287 285 279 277 283 287 285 284
182 186 192 195 197 203 208 210 212 215 215 212 211 211 210 208 206 207 209 209 210 212 217 223 229 247 264 272 281 292 303 312 316 314 310 307 305 303 302 301 301 299 297 297 296 294 294 297 300 304 304 297 288 286 285 284 283 279 278 283 287 284 282
185 190 194 197 200 207 214 215 217 220 218 215 215 214 214 213 211 209 211 211 211 214 222 228 232 246 264 271 277 289 299 307 312 312 311 311 308 305 305 304 303 301 300 300 300 301 303 305 305 304 299 291 287 286 284 282 279 276 277 285 292 288 281
189 192 195 202 208 215 220 221 221 224 222 219 218 216 215 216 214 212 212 212 211 216 225 230 233 247 265 271 277 289 298 305 311 312 313 312 309 307 306 305 304 303 302 303 305 307 308 306 303 299 293 288 286 286 283 282 279 275 278 288 298 295 285
192 192 195 208 217 221 224 226 225 226 225 221 218 217 216 215 214 213 213 212 213 218 226 229 232 251 268 274 282 292 300 307 311 313 313 311 310 310 308 307 306 305 305 306 308 310 309 305 301 296 292 288 286 285 283 283 281 278 282 293 300 297 289
191 195 198 210 223 226 228 231 227 224 226 223 216 216 216 213 213 213 212 212 215 220 230 235 240 256 269 276 286 296 303 309 312 312 312 312 312 312 310 308 307 307 307 308 310 310 309 304 300 294 290 287 286 285 284 284 282 282 288 297 300 296 291
195 209 213 218 229 233 232 231 223 221 227 225 217 217 215 210 210 212 210 210 214 223 237 243 248 260 271 280 290 300 307 311 312 312 312 313 313 311 309 309 308 308 309 309 308 307 306 302 297 293 289 286 286 285 284 284 284 286 290 293 293 291 289
204 214 216 217 222 221 213 208 206 212 222 217 212 214 212 207 208 209 206 206 212 225 238 244 252 263 273 284 295 304 309 311 310 311 312 311 310 308 307 307 308 309 310 307 303 302 304 302 297 293 291 288 287 286 285 286 288 291 292 290 287 286 287
182 182 182 184 181 175 172 172 175 180 181 184 192 200 204 205 203 199 198 205 217 229 237 245 255 266 278 292 301 306 308 308 309 310 309 306 305 305 306 307 308 310 310 306 302 301 300 297 294 293 292 290 289 288 287 288 289 289 287 284 283 284 285
149 151 153 154 153 152 149 144 145 148 152 162 170 174 183 188 186 188 200 212 219 225 234 248 261 274 289 299 303 304 306 307 308 306 303 303 303 305 308 311 311 311 309 305 302 299 297 295 295 294 293 292 290 288 287 286 286 283 279 279 282 284 283
136 135 136 141 143 140 135 130 131 137 143 148 149 149 155 163 170 188 206 210 214 224 240 257 273 287 296 300 301 303 305 305 303 301 301 304 307 311 314 314 311 308 305 302 299 297 296 296 297 295 293 292 290 288 286 285 284 283 281 283 287 290 288
128 129 132 136 132 129 128 126 128 134 136 138 141 144 148 158 172 185 192 196 208 233 256 274 287 294 297 300 301 302 303 302 303 305 307 310 314 316 316 312 307 305 303 301 299 297 296 297 297 296 295 294 294 292 290 288 287 287 287 288 291 293 294
125 126 127 126 122 123 125 125 127 133 137 141 150 154 153 162 177 184 186 198 217 246 275 288 295 297 300 301 301 302 304 307 310 313 314 315 317 316 312 307 305 305 304 302 300 298 298 297 297 296 296 297 297 296 293 291 291 291 290 290 291 292 294
119 118 117 117 118 121 123 125 127 132 139 148 158 162 164 177 195 199 205 234 257 273 286 294 299 302 303 302 304 308 311 313 317 319 317 316 316 314 311 309 309 310 309 308 306 303 301 298 297 296 296 297 298 296 294 295 295 293 291 292 293 294 295
113 115 116 116 117 119 122 125 128 133 140 149 160 173 182 196 215 222 241 267 282 290 295 296 299 302 303 306 311 314 315 317 321 319 315 312 312 313 313 313 313 313 313 312 311 308 306 304 301 297 295 295 295 294 295 297 297 296 296 297 296 294 293
112 113 114 115 115 116 118 120 126 138 149 157 171 190 205 224 239 250 271 290 303 306 302 300 303 308 310 312 315 314 313 316 319 316 314 314 315 316 315 315 314 313 313 315 316 314 310 309 308 305 299 295 294 295 297 297 296 297 297 296 294 290 287
113 113 116 117 118 118 118 119 126 140 153 161 163 161 195 247 264 278 297 313 322 301 302 308 314 318 316 312 312 312 314 317 319 320 321 321 318 318 317 315 314 314 314 316 317 316 314 312 311 309 305 300 298 298 297 295 294 296 296 294 291 288 286
123 126 127 127 126 124 124 126 130 137 147 156 153 146 162 238 292 306 310 313 295 292 308 315 315 317 317 312 313 317 321 323 323 322 323 321 319 320 319 315 313 313 313 315 316 315 315 311 307 307 306 303 301 299 297 295 295 295 293 289 288 288 288
134 136 136 134 134 135 137 139 139 141 148 153 153 156 176 243 298 306 308 309 302 305 319 320 315 320 322 318 319 323 324 325 323 321 322 322 322 321 317 314 312 310 311 312 310 311 313 308 303 303 302 300 298 297 295 295 294 288 285 285 287 289 290
140 142 140 139 140 144 148 146 142 145 150 153 155 161 182 241 293 307 307 306 312 322 328 325 322 323 323 322 323 323 324 327 326 323 324 324 322 320 317 314 313 314 316 314 310 313 318 314 306 304 302 299 297 295 291 289 288 288 290 293 295 296 295
142 146 146 145 143 147 149 145 140 143 148 150 156 163 174 263 314 326 321 317 327 333 329 326 325 323 322 324 323 322 325 330 327 324 325 325 322 320 317 316 317 319 317 314 311 315 321 323 321 319 313 304 298 296 296 295 293 295 302 306 306 305 303
144 150 150 147 146 146 145 140 137 141 147 148 151 159 173 282 320 339 334 324 329 333 329 325 324 323 323 324 323 323 328 330 324 322 325 324 321 318 317 319 320 319 317 314 314 315 321 331 337 337 331 321 309 301 303 306 306 308 313 315 314 313 310